TimeEDT,TemperatureF,Dew PointF,Humidity,Sea Level PressureIn,VisibilityMPH,Wind Direction,Wind SpeedMPH,Gust SpeedMPH,PrecipitationIn,Events,Conditions,WindDirDegrees,DateUTC
12:51 AM,43.0,39.0,86,30.15,10.0,South,5.8,-,N/A,,Overcast,180,2012-10-08 04:51:00
1:51 AM,43.0,39.0,86,30.15,10.0,South,8.1,-,N/A,,Overcast,190,2012-10-08 05:51:00
2:51 AM,43.0,37.9,82,30.16,10.0,SSW,10.4,-,N/A,,Overcast,200,2012-10-08 06:51:00
3:51 AM,44.1,39.0,82,30.15,10.0,SSW,8.1,-,N/A,,Overcast,200,2012-10-08 07:51:00
4:51 AM,43.0,37.9,82,30.17,8.0,SSW,9.2,-,0.00,Rain,Light Rain,200,2012-10-08 08:51:00
5:51 AM,42.1,37.9,85,30.19,10.0,SSW,11.5,-,0.02,,Overcast,200,2012-10-08 09:51:00
6:51 AM,41.0,37.9,89,30.20,10.0,SSW,8.1,-,0.01,,Overcast,200,2012-10-08 10:51:00
7:51 AM,39.9,37.0,89,30.22,10.0,South,9.2,-,N/A,,Overcast,190,2012-10-08 11:51:00
8:51 AM,42.8,37.4,81,30.22,10.0,SSW,8.1,-,N/A,,Scattered Clouds,200,2012-10-08 12:51:00
9:51 AM,44.1,39.0,82,30.24,10.0,SSW,6.9,-,N/A,,Overcast,210,2012-10-08 13:51:00
10:51 AM,46.9,39.9,77,30.24,10.0,Variable,5.8,-,N/A,,Mostly Cloudy,0,2012-10-08 14:51:00
11:09 AM,48.2,39.2,71,30.23,10.0,SSW,6.9,-,N/A,,Mostly Cloudy,200,2012-10-08 15:09:00
11:51 AM,50.0,39.0,66,30.24,10.0,SSW,8.1,-,N/A,,Overcast,200,2012-10-08 15:51:00
12:51 PM,48.2,37.4,66,30.22,10.0,South,9.2,-,N/A,,Overcast,180,2012-10-08 16:51:00
1:51 PM,51.1,35.1,54,30.22,10.0,South,10.4,-,N/A,,Overcast,190,2012-10-08 17:51:00
2:51 PM,52.0,33.1,49,30.20,10.0,SW,8.1,-,N/A,,Scattered Clouds,230,2012-10-08 18:51:00
3:51 PM,51.1,33.1,50,30.20,10.0,South,6.9,-,N/A,,Mostly Cloudy,190,2012-10-08 19:51:00
4:51 PM,51.1,34.0,52,30.20,10.0,South,9.2,-,N/A,,Overcast,170,2012-10-08 20:51:00
5:51 PM,50.0,34.0,54,30.21,10.0,South,10.4,-,N/A,,Mostly Cloudy,180,2012-10-08 21:51:00
6:51 PM,46.0,33.1,61,30.20,10.0,South,6.9,-,N/A,,Clear,170,2012-10-08 22:51:00
7:51 PM,43.0,34.0,71,30.20,10.0,South,6.9,-,N/A,,Clear,170,2012-10-08 23:51:00
8:51 PM,42.1,34.0,73,30.21,10.0,South,9.2,-,N/A,,Clear,170,2012-10-09 00:51:00
9:51 PM,41.0,34.0,76,30.21,10.0,South,9.2,-,N/A,,Clear,170,2012-10-09 01:51:00
10:51 PM,39.9,34.0,79,30.22,10.0,SSE,6.9,-,N/A,,Clear,160,2012-10-09 02:51:00
11:51 PM,39.0,34.0,82,30.22,10.0,South,6.9,-,N/A,,Clear,170,2012-10-09 03:51:00